OBJECT E, 43755

Orbit data source: Space-Track

You're viewing an Uncataloged Satellite

Recently launched and/or uncataloged satellites may have evolving metadata. Metadata may include but not limited to: Owner, Maufacturer, Bus, Motor, and Mission.

OBJECT E, 43755 is a satellite owned by NIIPP (CIS) in LEO that was launched on Fri, 30 Nov 2018 UTC launched from the Plesetsk Missile And Space Complex (PKMTR). Unknown objects in Earth's orbit typically refer to objects detected orbiting the Earth but have not yet been identified or cataloged. These objects could be anything from previously untracked satellites, spent rocket stages, debris from satellite collisions, or even natural meteoroids temporarily captured by Earth's gravity.

Loading next visibility...
Identifier
43755, 2018-097E
Orbit
LEO
Country
Flag of CISCIS
Related business
Manufacturer
NIIPP
Mission
Spacecraft
Bus & Motor
Unknown
Mass
Unknown
Launch date (UTC)
2018-11-30 (7 years ago)
Launch vehicle
Unknown
Launch site
Plesetsk Missile And Space Complex (PKMTR)
Object type
Unknown
Shape & HBR
Box, 0.1 m
Radar Cross Section
0.060 m², Small (<0.1 m²)

Expand to show TLE details & history
Last TLE update: 19 hours ago

TLE from 19 hours ago
0 OBJECT E
1 43755U 18097E   25258.35362423  .00000046  00000-0  14093-3 0  9999
2 43755  82.5097 279.7081 0215448 219.7132 138.8026 12.80899667317421
Epoch: 2025-09-15T08:29Z
TLE epoch observation values (Epoch: 2025-09-15T08:29:13.133Z)
Latitude
-0.00004°
Longitude
157.84388°
Altitude
1,467.234 km
Speed
7.071 km/s
True Right ascension
18h 38m 49s
True Declination
0° 00' 00"
Sunlit
Object was in daylight at epoch
Visualization orbit readout
Latitude
Unknown
Longitude
Unknown
Altitude
Unknown
Speed
Unknown
Apparent Right ascension
Unknown
Apparent Declination
Unknown
Sunlit
N/A
Visualization observer readout
Local Sidereal Time
20:19:46
Azimuth
Unknown
Elevation
Unknown
Doppler factor
Unknown
Orbital elements
Apogee altitude
1,501.331 km
Perigee altitude
1,168.969 km
Semi-major axis
7,713.287 km
Eccentricity
0.02154
Inclination
82.5097°
RAAN
279.7081°
Arg. of periapsis
219.7132°
True anomaly
140.3962°
Mean anomaly
138.8026°
Eccentric anomaly
139.60261°
Mean motion
3.20394 °/min
Orbital period
112.36 mins
BSTAR
0.00014093
Loading maneuver chart data...
Computing Atmospheric mass density...
Loading historical data...
Loading historical data...
Loading historical data...
Loading historical data...
Loading historical data...
Loading historical data...
Loading historical data...
Other satellites on launch #97 in the year 2018 (2018-11-30 UTC)

Documentation

Showing up to 5 results
|